Flag for France Weather past 2 weeks in Taiohae, Marquesas Islands, France

Now
76 °F

Mild.


Feels Like: 77 °F
Forecast: 76 / 80 °F
Wind: 1 mph from Northwest

Location: Atuona

Current Time: Sep 18, 2014 at 8:24:41 PM

Latest Report: Sep 18, 2014 at 7:30 PM


Visibility: N/A

Pressure: 29.94 "Hg

Humidity: 79%

Dew point: 69 °F

Location of TaiohaeLocation

Historic Weather in Taiohae — Graph

°F

Taiohae temperature yesterday

Maximum temperature yesterday: 85 °F (at 11:30 AM)
Minimum temperature yesterday: 73 °F (at 12:30 AM)
Average temperature yesterday: 78 °F

Past Weeks' High & Low Weather Summary

 TemperatureHumidityPressure
High88 °F (Sep 6, 12:30 PM)95% (Sep 10, 6:30 AM)30.01 "Hg (Sep 10, 6:30 AM)
Low71 °F (Sep 12, 4:30 AM)55% (Sep 6, 10:30 AM)29.80 "Hg (Sep 13, 3:30 PM)
Average78 °F78%29.90 "Hg
* Reported Sep 3 6:30 PM — Sep 18 6:30 PM, Taiohae, Weather by CustomWeather, © 2014

Note: Actual official high and low records may vary slightly from our data, if they occured in-between our weather recording intervals... More about our weather records

Advertising

Taiohae weather history for previous 24 hours

 ConditionsComfort  
Time TempWeatherWind HumidityBarometerVisibility
6:30 PM
Sep 18
78 °FWarm.5 mph72%29.92 "HgN/A
5:30 PM79 °FWarm.8 mph71%29.89 "HgN/A
4:30 PM79 °FPassing clouds.10 mph70%29.88 "Hg28 mi
3:30 PM83 °FPassing clouds.9 mph63%29.86 "Hg28 mi
2:30 PM85 °FPassing clouds.7 mph62%29.87 "Hg28 mi
1:30 PM85 °FWarm.13 mph62%29.89 "HgN/A
12:30 PM85 °FPassing clouds.15 mph64%29.91 "Hg28 mi
11:30 AM84 °FPassing clouds.16 mph64%29.93 "Hg25 mi
10:30 AM86 °FPassing clouds.16 mph62%29.96 "Hg25 mi
9:30 AM84 °FPassing clouds.14 mph64%29.97 "Hg25 mi
8:30 AM83 °FScattered clouds.14 mph66%29.97 "Hg22 mi
7:30 AM78 °FScattered clouds.1 mph74%29.97 "Hg22 mi
6:30 AM72 °FScattered clouds.No wind84%29.96 "Hg19 mi
5:30 AM72 °FPassing clouds.1 mph85%29.93 "Hg19 mi
4:30 AM72 °FMild.No wind85%29.91 "HgN/A
3:30 AM72 °FMild.1 mph85%29.90 "HgN/A
2:30 AM73 °FMild.3 mph84%29.90 "HgN/A
1:30 AM74 °FMild.2 mph82%29.91 "HgN/A
12:30 AM73 °FMild.2 mph84%29.92 "HgN/A
11:30 PM
Sep 17
74 °FMild.1 mph82%29.93 "HgN/A
10:30 PM73 °FMild.1 mph84%29.95 "HgN/A
9:30 PM75 °FMild.1 mph82%29.95 "HgN/A
8:30 PM76 °FMild.2 mph80%29.94 "HgN/A
Weather by CustomWeather, © 2014

See weather overviewHow to use our weather pages